AirNav   Pilot Hours Calculator
 
 661 users online  

72FL Gator Airpark
St Cloud, Florida, USA

GOING TO ST CLOUD?


FAA INFORMATION EFFECTIVE 07 OCTOBER 2021

Location

FAA Identifier: 72FL
Lat/Long: 28-09-27.0560N 081-14-05.2680W
28-09.450933N 081-14.087800W
28.1575156,-81.2347967
(estimated)
Elevation: 68 ft. / 21 m (estimated)
Variation: 02W (1990)
From city: 6 miles SE of ST CLOUD, FL
Time zone: UTC -4 (UTC -5 during Standard Time)
Zip code: 33837

Airport Operations

Airport use: Private use. Permission required prior to landing
Activation date: 02/1993
Control tower: no
ARTCC: JACKSONVILLE CENTER
FSS: SAINT PETERSBURG FLIGHT SERVICE STATION
Attendance: UNATNDD
Segmented circle: no

Airport Communications

WX AWOS-3PT at ISM (13 nm NW): PHONE 407-847-0533
WX ASOS at MCO (17 nm N): PHONE 407-855-5235

Nearby radio navigation aids

VOR radial/distance  VOR name  Freq  Var
ORLr167/23.7ORLANDO VORTAC112.2000E
MLBr283/31.9MELBOURNE VOR/DME115.8507W

Airport Services

Runway Information

Runway 9/27

Dimensions: 1800 x 200 ft. / 549 x 61 m
Surface: turf
RUNWAY 9  RUNWAY 27
Traffic pattern: leftleft

Airport Ownership and Management from official FAA records

Ownership: Privately-owned
Owner: ALBRITTON AIRSTRIP TRUST
4525 ALBRITTON RD
SAINT CLOUD, FL 34772
Phone 407-892-4546
Manager: ROBERT L. ALBRITTON
4525 ALBRITTON RD
SAINT CLOUD, FL 34772
Phone 407-908-5656

Airport Operational Statistics

Aircraft based on the field: 6
Single engine airplanes: 6
    
Aircraft operations: avg 25/month
100% local general aviation

Additional Remarks

FOR CD CTC ORLANDO APCH AT 407-852-7553.

Instrument Procedures

There are no published instrument procedures at 72FL.

Some nearby airports with instrument procedures:

KISM - Kissimmee Gateway Airport (13 nm NW)
KMCO - Orlando International Airport (17 nm N)
KORL - Executive Airport (24 nm N)
X07 - Lake Wales Municipal Airport (26 nm SW)
KGIF - Winter Haven Regional Airport (28 nm W)
 
Loc | Ops | Rwys | IFR | FBO | Links
Com | Nav | Svcs | Stats | Notes

Reliance Aviation
AirBoss

 
Area around 72FL (Gator Airpark)
 
Road maps at: MapQuest Bing Google
 
Aerial photo
No photo
 
Sectional chart

 
Airport distance calculator
Flying to Gator Airpark? Find the distance to fly.

From to 72FL

Sunrise and sunset
Times for 19-Oct-2021
 Local
(UTC-4)
 Zulu
(UTC)
Morning civil twilight07:0511:05
Sunrise07:2911:29
Sunset18:5122:51
Evening civil twilight19:1523:15

Current date and time
Zulu (UTC)  19-Oct-2021 11:33:12
Local (UTC-4)  19-Oct-2021 07:33:12
 
METAR
KISM 
13nm NW 
191056Z 02005KT 10SM CLR 20/16 A3012 RMK AO2 SLP201 T02000161 PNO $
KMCO 
16nm N 
191053Z 02007KT 10SM FEW050 BKN250 19/16 A3011 RMK AO2 SLP196 T01940161
KORL 
24nm N 
191053Z AUTO VRB04KT 10SM CLR 19/16 A3012 RMK AO2 SLP202 T01940161
KX07 
26nm SW 
191115Z AUTO 03005KT 10SM CLR 18/17 A3013 RMK A01
TAF
KISM 
13nm NW 
190520Z 1906/2006 VRB04KT P6SM FEW060 BKN250 FM191500 08009KT P6SM SCT050 FM200100 VRB03KT P6SM FEW040 SCT250
KMCO 
16nm N 
190520Z 1906/2012 03005KT P6SM FEW060 BKN250 FM191500 07011KT P6SM SCT050 FM200200 VRB03KT P6SM FEW040 SCT250
NOTAMs
Click for the latest NOTAMs
NOTAMs are issued by the DoD/FAA and will open in a separate window not controlled by AirNav.

 

 
 

Would you like to see your business listed on this page?

 If your business provides an interesting product or service to pilots, flight crews, aircraft, or users of the Gator Airpark, you should consider listing it here.  To start the listing process, click on the button below
 
Add a business
 

Other Pages about Gator Airpark

Update a link
 
Copyright © AirNav, LLC. All rights reserved. Privacy Policy  Contact